"read_dt","SO2 (ppb)","flags","PMT voltage (V)","lamp voltage (V)","lamp intensity (Hz)","internal temp (C)","react chamber temp (C)","sample flow (l/min)","pres (mmHg)","SO2 bkg (ppb)","SO2 coefficient"
2016-03-28 00:00:00,1761E-3,5C000400,-0724,0834,12190,023.3,045.3,0.263,757.8,01.16,0.508
2016-03-28 00:01:00,1823E-3,5C000400,-0724,0833,12180,023.3,045.3,0.264,757.8,01.16,0.508
2016-03-28 00:02:00,1821E-3,5C000400,-0724,0834,11982,023.3,045.3,0.264,757.8,01.16,0.508
2016-03-28 00:03:00,1842E-3,5C000400,-0724,0834,12232,023.3,045.3,0.263,757.8,01.16,0.508
2016-03-28 00:04:00,1833E-3,5C000400,-0724,0834,12222,023.3,045.3,0.263,757.8,01.16,0.508
2016-03-28 00:05:00,1768E-3,5C000400,-0724,0834,12139,023.3,045.3,0.263,757.8,01.16,0.508
2016-03-28 00:06:00,1825E-3,5C000400,-0724,0834,12108,023.3,045.3,0.263,757.8,01.16,0.508
2016-03-28 00:07:00,1642E-3,5C000400,-0724,0834,12171,023.3,045.3,0.263,757.8,01.16,0.508
2016-03-28 00:08:00,1720E-3,5C000400,-0724,0835,12017,023.3,045.3,0.264,757.8,01.16,0.508
2016-03-28 00:09:00,1822E-3,5C000400,-0724,0834,12099,023.2,045.3,0.264,757.8,01.16,0.508
2016-03-28 00:10:00,1866E-3,5C000400,-0724,0834,12161,023.3,045.3,0.263,757.8,01.16,0.508
2016-03-28 00:11:00,1595E-3,5C000400,-0724,0834,12061,023.3,045.3,0.263,757.8,01.16,0.508
2016-03-28 00:12:00,1822E-3,5C000400,-0724,0834,12115,023.3,045.3,0.264,757.8,01.16,0.508
2016-03-28 00:13:00,1732E-3,5C000400,-0724,0835,12167,023.3,045.3,0.264,757.8,01.16,0.508
2016-03-28 00:14:00,1759E-3,5C000400,-0724,0834,12249,023.3,045.3,0.264,757.8,01.16,0.508
2016-03-28 00:15:00,1836E-3,5C000400,-0724,0834,12195,023.3,045.3,0.264,757.8,01.16,0.508
2016-03-28 00:16:00,1800E-3,5C000400,-0724,0834,12085,023.3,045.3,0.264,757.8,01.16,0.508
2016-03-28 00:17:00,1816E-3,5C000400,-0724,0834,12254,023.3,045.3,0.263,757.8,01.16,0.508
2016-03-28 00:18:00,1810E-3,5C000400,-0724,0834,12142,023.3,045.3,0.264,757.8,01.16,0.508
2016-03-28 00:19:00,1842E-3,5C000400,-0724,0834,12163,023.3,045.3,0.264,757.8,01.16,0.508
2016-03-28 00:20:00,1789E-3,5C000400,-0724,0835,12190,023.3,045.3,0.264,757.8,01.16,0.508
2016-03-28 00:21:00,1841E-3,5C000400,-0724,0834,12166,023.3,045.3,0.264,757.8,01.16,0.508
2016-03-28 00:22:00,1819E-3,5C000400,-0724,0834,12082,023.2,045.3,0.264,757.8,01.16,0.508
2016-03-28 00:23:00,1777E-3,5C000400,-0724,0835,12127,023.3,045.3,0.264,757.8,01.16,0.508
2016-03-28 00:24:00,1789E-3,5C000400,-0724,0834,12230,023.3,045.3,0.264,757.8,01.16,0.508
2016-03-28 00:25:00,1801E-3,5C000400,-0724,0834,12198,023.3,045.3,0.264,757.8,01.16,0.508
2016-03-28 00:26:00,1712E-3,5C000400,-0724,0834,12167,023.3,045.3,0.264,757.8,01.16,0.508
2016-03-28 00:27:00,1832E-3,5C000400,-0724,0834,12155,023.3,045.3,0.263,757.8,01.16,0.508
2016-03-28 00:28:00,1793E-3,5C000400,-0724,0835,12043,023.2,045.3,0.263,757.8,01.16,0.508
2016-03-28 00:29:00,1799E-3,5C000400,-0724,0834,12149,023.2,045.3,0.263,757.8,01.16,0.508
2016-03-28 00:30:00,1919E-3,5C000400,-0724,0834,12239,023.2,045.3,0.264,757.8,01.16,0.508
2016-03-28 00:31:00,1783E-3,5C000400,-0724,0834,12095,023.3,045.3,0.264,757.8,01.16,0.508
2016-03-28 00:32:00,1840E-3,5C000400,-0724,0834,12191,023.2,045.3,0.263,757.8,01.16,0.508
2016-03-28 00:33:00,1678E-3,5C000400,-0724,0833,12245,023.2,045.3,0.264,757.8,01.16,0.508
2016-03-28 00:34:00,1669E-3,5C000400,-0724,0835,12129,023.2,045.3,0.264,757.8,01.16,0.508
2016-03-28 00:35:00,1794E-3,5C000400,-0724,0834,12106,023.3,045.3,0.263,757.8,01.16,0.508
2016-03-28 00:36:00,1746E-3,5C000400,-0724,0834,12108,023.2,045.3,0.264,757.9,01.16,0.508
2016-03-28 00:37:00,1827E-3,5C000400,-0724,0835,12276,023.2,045.3,0.263,757.9,01.16,0.508
2016-03-28 00:38:00,1768E-3,5C000400,-0724,0835,12216,023.2,045.3,0.263,757.9,01.16,0.508
2016-03-28 00:39:00,1745E-3,5C000400,-0724,0835,12154,023.2,045.3,0.264,757.9,01.16,0.508
2016-03-28 00:40:00,1779E-3,5C000400,-0724,0834,12107,023.3,045.3,0.264,757.9,01.16,0.508
2016-03-28 00:41:00,1726E-3,5C000400,-0724,0834,12000,023.2,045.3,0.264,757.9,01.16,0.508
2016-03-28 00:42:00,1876E-3,5C000400,-0724,0834,12189,023.2,045.3,0.263,757.9,01.16,0.508
2016-03-28 00:43:00,1631E-3,5C000400,-0724,0833,12193,023.2,045.3,0.263,757.9,01.16,0.508
2016-03-28 00:44:00,1686E-3,5C000400,-0724,0834,12216,023.2,045.3,0.263,757.9,01.16,0.508
2016-03-28 00:45:00,1775E-3,5C000400,-0724,0833,12060,023.2,045.3,0.263,758.0,01.16,0.508
2016-03-28 00:46:00,1706E-3,5C000400,-0724,0835,12099,023.2,045.3,0.263,758.0,01.16,0.508
2016-03-28 00:47:00,1698E-3,5C000400,-0724,0835,12198,023.2,045.3,0.263,758.0,01.16,0.508
2016-03-28 00:48:00,1846E-3,5C000400,-0724,0834,12172,023.2,045.3,0.263,758.0,01.16,0.508
2016-03-28 00:49:00,1778E-3,5C000400,-0724,0834,12214,023.2,045.3,0.263,758.0,01.16,0.508
2016-03-28 00:50:00,1736E-3,5C000400,-0724,0834,12151,023.2,045.3,0.264,758.0,01.16,0.508
2016-03-28 00:51:00,1800E-3,5C000400,-0724,0835,12201,023.2,045.3,0.264,758.0,01.16,0.508
2016-03-28 00:52:00,1670E-3,5C000400,-0724,0834,12184,023.2,045.3,0.264,758.0,01.16,0.508
2016-03-28 00:53:00,1731E-3,5C000400,-0724,0835,12150,023.2,045.3,0.264,758.0,01.16,0.508
2016-03-28 00:54:00,1703E-3,5C000400,-0724,0834,12176,023.2,045.3,0.264,758.0,01.16,0.508
2016-03-28 00:55:00,1707E-3,5C000400,-0724,0834,12183,023.2,045.3,0.264,758.0,01.16,0.508
2016-03-28 00:56:00,1670E-3,5C000400,-0724,0834,12094,023.2,045.3,0.264,758.0,01.16,0.508
2016-03-28 00:57:00,1853E-3,5C000400,-0724,0834,12057,023.2,045.3,0.264,758.0,01.16,0.508
2016-03-28 00:58:00,1886E-3,5C000400,-0724,0835,12265,023.2,045.3,0.264,758.0,01.16,0.508
2016-03-28 00:59:00,1750E-3,5C000400,-0724,0835,12191,023.2,045.3,0.264,758.0,01.16,0.508
2016-03-28 01:00:00,1731E-3,5C000400,-0724,0834,12099,023.2,045.3,0.264,758.0,01.16,0.508
2016-03-28 01:01:00,1722E-3,5C000400,-0724,0834,12073,023.2,045.3,0.264,758.0,01.16,0.508
2016-03-28 01:02:00,1733E-3,5C000400,-0724,0835,11999,023.2,045.3,0.264,758.0,01.16,0.508
2016-03-28 01:03:00,1806E-3,5C000400,-0724,0834,12147,023.2,045.3,0.264,758.0,01.16,0.508
2016-03-28 01:04:00,1791E-3,5C000400,-0724,0835,12228,023.2,045.3,0.264,758.0,01.16,0.508
2016-03-28 01:05:00,1761E-3,5C000400,-0724,0834,12172,023.2,045.3,0.264,758.0,01.16,0.508
2016-03-28 01:06:00,1785E-3,5C000400,-0724,0834,12159,023.2,045.3,0.263,758.0,01.16,0.508
2016-03-28 01:07:00,1879E-3,5C000400,-0724,0833,12136,023.2,045.3,0.263,758.0,01.16,0.508
2016-03-28 01:08:00,1720E-3,5C000400,-0724,0834,12172,023.2,045.3,0.264,758.1,01.16,0.508
2016-03-28 01:09:00,1762E-3,5C000400,-0724,0833,12027,023.2,045.3,0.264,758.1,01.16,0.508
2016-03-28 01:10:00,1714E-3,5C000400,-0724,0834,12081,023.2,045.3,0.263,758.1,01.16,0.508
2016-03-28 01:11:00,1804E-3,5C000400,-0724,0834,12146,023.2,045.3,0.264,758.1,01.16,0.508
2016-03-28 01:12:00,1761E-3,5C000400,-0724,0834,12175,023.2,045.3,0.264,758.1,01.16,0.508
2016-03-28 01:13:00,1799E-3,5C000400,-0724,0834,12066,023.3,045.3,0.263,758.1,01.16,0.508
2016-03-28 01:14:00,1777E-3,5C000400,-0724,0833,12080,023.2,045.3,0.264,758.1,01.16,0.508
2016-03-28 01:15:00,1774E-3,5C000400,-0724,0833,12097,023.2,045.3,0.263,758.1,01.16,0.508
2016-03-28 01:16:00,1936E-3,5C000400,-0724,0834,12228,023.2,045.3,0.263,758.0,01.16,0.508
2016-03-28 01:17:00,1803E-3,5C000400,-0724,0834,12250,023.2,045.3,0.264,758.0,01.16,0.508
2016-03-28 01:18:00,1727E-3,5C000400,-0724,0834,12302,023.2,045.3,0.264,758.0,01.16,0.508
2016-03-28 01:19:00,1655E-3,5C000400,-0724,0834,12128,023.2,045.3,0.264,758.1,01.16,0.508
2016-03-28 01:20:00,1742E-3,5C000400,-0724,0834,12197,023.2,045.3,0.264,758.1,01.16,0.508
2016-03-28 01:21:00,1858E-3,5C000400,-0724,0835,12246,023.3,045.3,0.264,758.1,01.16,0.508
2016-03-28 01:22:00,1706E-3,5C000400,-0724,0834,12173,023.3,045.3,0.264,758.1,01.16,0.508
2016-03-28 01:23:00,1765E-3,5C000400,-0724,0834,12161,023.3,045.3,0.264,758.1,01.16,0.508
2016-03-28 01:24:00,1815E-3,5C000400,-0724,0834,12128,023.3,045.3,0.264,758.1,01.16,0.508
2016-03-28 01:25:00,1772E-3,5C000400,-0724,0834,12175,023.3,045.3,0.264,758.1,01.16,0.508
2016-03-28 01:26:00,1654E-3,5C000400,-0724,0834,12060,023.3,045.3,0.264,758.1,01.16,0.508
2016-03-28 01:27:00,1784E-3,5C000400,-0724,0834,12184,023.3,045.3,0.263,758.1,01.16,0.508
2016-03-28 01:28:00,1763E-3,5C000400,-0724,0834,12041,023.3,045.3,0.263,758.1,01.16,0.508
2016-03-28 01:29:00,1783E-3,5C000400,-0724,0834,12140,023.3,045.3,0.263,758.1,01.16,0.508
2016-03-28 01:30:00,1844E-3,5C000400,-0724,0833,12244,023.3,045.3,0.264,758.1,01.16,0.508
2016-03-28 01:31:00,1798E-3,5C000400,-0724,0833,12113,023.2,045.3,0.264,758.1,01.16,0.508
2016-03-28 01:32:00,1626E-3,5C000400,-0724,0834,12067,023.2,045.3,0.264,758.1,01.16,0.508
2016-03-28 01:33:00,1726E-3,5C000400,-0724,0834,12283,023.2,045.3,0.264,758.1,01.16,0.508
2016-03-28 01:34:00,1812E-3,5C000400,-0724,0834,12146,023.2,045.3,0.263,758.1,01.16,0.508
2016-03-28 01:35:00,1671E-3,5C000400,-0724,0834,12128,023.3,045.3,0.263,758.1,01.16,0.508
2016-03-28 01:36:00,1784E-3,5C000400,-0724,0833,12223,023.3,045.3,0.263,758.1,01.16,0.508
2016-03-28 01:37:00,1743E-3,5C000400,-0724,0833,12079,023.3,045.3,0.263,758.1,01.16,0.508
2016-03-28 01:38:00,1786E-3,5C000400,-0724,0834,12098,023.3,045.3,0.263,758.1,01.16,0.508
2016-03-28 01:39:00,1688E-3,5C000400,-0724,0834,12279,023.3,045.3,0.263,758.1,01.16,0.508
2016-03-28 01:40:00,1797E-3,5C000400,-0724,0834,12114,023.3,045.3,0.263,758.1,01.16,0.508
2016-03-28 01:41:00,1784E-3,5C000400,-0724,0834,12219,023.3,045.3,0.263,758.1,01.16,0.508
2016-03-28 01:42:00,1930E-3,5C000400,-0724,0834,12137,023.3,045.3,0.263,758.1,01.16,0.508
2016-03-28 01:43:00,1736E-3,5C000400,-0724,0834,12214,023.3,045.3,0.264,758.2,01.16,0.508
2016-03-28 01:44:00,1864E-3,5C000400,-0724,0834,12005,023.3,045.3,0.264,758.2,01.16,0.508
2016-03-28 01:45:00,1786E-3,5C000400,-0724,0835,12034,023.3,045.3,0.263,758.2,01.16,0.508
2016-03-28 01:46:00,1887E-3,5C000400,-0724,0834,12061,023.3,045.3,0.263,758.2,01.16,0.508
2016-03-28 01:47:00,1751E-3,5C000400,-0724,0834,12146,023.3,045.3,0.264,758.2,01.16,0.508
2016-03-28 01:48:00,1740E-3,5C000400,-0724,0833,12004,023.3,045.3,0.263,758.2,01.16,0.508
2016-03-28 01:49:00,1559E-3,5C000400,-0724,0834,12118,023.3,045.3,0.264,758.2,01.16,0.508
2016-03-28 01:50:00,1661E-3,5C000400,-0724,0834,12054,023.3,045.3,0.263,758.2,01.16,0.508
2016-03-28 01:51:00,1723E-3,5C000400,-0724,0833,12105,023.3,045.3,0.264,758.2,01.16,0.508
2016-03-28 01:52:00,1871E-3,5C000400,-0724,0834,12072,023.3,045.3,0.263,758.2,01.16,0.508
2016-03-28 01:53:00,1839E-3,5C000400,-0724,0835,12278,023.3,045.3,0.263,758.2,01.16,0.508
2016-03-28 01:54:00,1766E-3,5C000400,-0724,0833,12206,023.3,045.3,0.264,758.2,01.16,0.508
2016-03-28 01:55:00,1730E-3,5C000400,-0724,0834,12228,023.3,045.3,0.263,758.2,01.16,0.508
2016-03-28 01:56:00,1799E-3,5C000400,-0724,0834,12178,023.3,045.3,0.264,758.2,01.16,0.508
2016-03-28 01:57:00,1707E-3,5C000400,-0724,0834,12299,023.3,045.3,0.263,758.2,01.16,0.508
2016-03-28 01:58:00,1795E-3,5C000400,-0724,0834,12068,023.3,045.3,0.263,758.2,01.16,0.508
2016-03-28 01:59:00,1682E-3,5C000400,-0724,0834,12127,023.3,045.3,0.264,758.2,01.16,0.508
2016-03-28 02:00:00,1750E-3,5C000400,-0724,0834,12097,023.3,045.3,0.263,758.2,01.16,0.508
2016-03-28 02:01:00,1771E-3,5C000400,-0724,0835,12154,023.3,045.3,0.263,758.2,01.16,0.508
2016-03-28 02:02:00,1718E-3,5C000400,-0724,0834,12155,023.3,045.3,0.264,758.2,01.16,0.508
2016-03-28 02:03:00,1700E-3,5C000400,-0724,0834,12101,023.3,045.3,0.263,758.3,01.16,0.508
2016-03-28 02:04:00,1759E-3,5C000400,-0724,0834,12190,023.3,045.3,0.263,758.3,01.16,0.508
2016-03-28 02:05:00,1668E-3,5C000400,-0724,0835,12055,023.3,045.3,0.263,758.3,01.16,0.508
2016-03-28 02:06:00,1704E-3,5C000400,-0724,0834,11990,023.3,045.3,0.263,758.3,01.16,0.508
2016-03-28 02:07:00,1791E-3,5C000400,-0724,0834,12158,023.3,045.3,0.263,758.3,01.16,0.508
2016-03-28 02:08:00,1756E-3,5C000400,-0724,0834,12207,023.3,045.3,0.263,758.3,01.16,0.508
2016-03-28 02:09:00,1667E-3,5C000400,-0724,0834,12165,023.3,045.3,0.264,758.3,01.16,0.508
2016-03-28 02:10:00,1724E-3,5C000400,-0724,0835,12030,023.3,045.3,0.264,758.3,01.16,0.508
2016-03-28 02:11:00,1971E-3,5C000400,-0724,0833,12183,023.3,045.3,0.264,758.3,01.16,0.508
2016-03-28 02:12:00,1897E-3,5C000400,-0724,0835,12112,023.4,045.3,0.264,758.3,01.16,0.508
2016-03-28 02:13:00,1864E-3,5C000400,-0724,0834,12285,023.3,045.3,0.264,758.3,01.16,0.508
2016-03-28 02:14:00,1809E-3,5C000400,-0724,0834,12193,023.3,045.3,0.263,758.3,01.16,0.508
2016-03-28 02:15:00,1722E-3,5C000400,-0724,0834,12240,023.3,045.3,0.263,758.3,01.16,0.508
2016-03-28 02:16:00,1747E-3,5C000400,-0724,0833,12168,023.4,045.3,0.264,758.3,01.16,0.508
2016-03-28 02:17:00,1712E-3,5C000400,-0724,0835,12172,023.3,045.3,0.264,758.3,01.16,0.508
2016-03-28 02:18:00,1851E-3,5C000400,-0724,0835,12189,023.3,045.3,0.264,758.3,01.16,0.508
2016-03-28 02:19:00,1817E-3,5C000400,-0724,0834,12151,023.4,045.3,0.263,758.3,01.16,0.508
2016-03-28 02:20:00,1798E-3,5C000400,-0724,0834,12166,023.4,045.3,0.263,758.3,01.16,0.508
2016-03-28 02:21:00,1758E-3,5C000400,-0724,0835,12117,023.4,045.3,0.263,758.3,01.16,0.508
2016-03-28 02:22:00,1903E-3,5C000400,-0724,0834,12257,023.4,045.3,0.263,758.4,01.16,0.508
2016-03-28 02:23:00,1860E-3,5C000400,-0724,0834,12138,023.4,045.3,0.263,758.4,01.16,0.508
2016-03-28 02:24:00,1781E-3,5C000400,-0724,0833,12083,023.4,045.3,0.264,758.3,01.16,0.508
2016-03-28 02:25:00,1770E-3,5C000400,-0724,0834,12170,023.4,045.3,0.263,758.4,01.16,0.508
2016-03-28 02:26:00,1853E-3,5C000400,-0724,0834,12250,023.4,045.3,0.263,758.3,01.16,0.508
2016-03-28 02:27:00,1724E-3,5C000400,-0724,0834,12253,023.4,045.3,0.264,758.3,01.16,0.508
2016-03-28 02:28:00,1841E-3,5C000400,-0724,0834,12196,023.4,045.3,0.263,758.3,01.16,0.508
2016-03-28 02:29:00,1778E-3,5C000400,-0724,0834,12177,023.4,045.3,0.263,758.4,01.16,0.508
2016-03-28 02:30:00,1824E-3,5C000400,-0724,0833,12203,023.4,045.3,0.264,758.4,01.16,0.508
2016-03-28 02:31:00,1764E-3,5C000400,-0724,0834,12232,023.4,045.3,0.263,758.4,01.16,0.508
2016-03-28 02:32:00,1872E-3,5C000400,-0724,0834,12065,023.4,045.3,0.263,758.4,01.16,0.508
2016-03-28 02:33:00,1836E-3,5C000400,-0724,0834,12161,023.4,045.3,0.263,758.4,01.16,0.508
2016-03-28 02:34:00,1995E-3,5C000400,-0724,0834,12147,023.4,045.3,0.264,758.4,01.16,0.508
2016-03-28 02:35:00,1767E-3,5C000400,-0724,0834,12093,023.4,045.3,0.263,758.4,01.16,0.508
2016-03-28 02:36:00,1837E-3,5C000400,-0724,0834,12120,023.4,045.3,0.263,758.3,01.16,0.508
2016-03-28 02:37:00,1753E-3,5C000400,-0724,0834,12215,023.4,045.3,0.263,758.3,01.16,0.508
2016-03-28 02:38:00,1724E-3,5C000400,-0724,0834,12245,023.5,045.3,0.263,758.4,01.16,0.508
2016-03-28 02:39:00,1909E-3,5C000400,-0724,0834,12155,023.4,045.3,0.263,758.4,01.16,0.508
2016-03-28 02:40:00,1838E-3,5C000400,-0724,0835,12219,023.5,045.3,0.263,758.4,01.16,0.508
2016-03-28 02:41:00,1837E-3,5C000400,-0724,0834,12160,023.5,045.3,0.263,758.4,01.16,0.508
2016-03-28 02:42:00,1848E-3,5C000400,-0724,0834,12068,023.5,045.3,0.263,758.4,01.16,0.508
2016-03-28 02:43:00,1771E-3,5C000400,-0724,0834,12239,023.5,045.3,0.263,758.4,01.16,0.508
2016-03-28 02:44:00,1839E-3,5C000400,-0724,0835,12189,023.5,045.3,0.263,758.4,01.16,0.508
2016-03-28 02:45:00,1679E-3,5C000400,-0724,0834,12162,023.5,045.3,0.263,758.4,01.16,0.508
2016-03-28 02:46:00,1844E-3,5C000400,-0724,0834,12141,023.5,045.3,0.263,758.4,01.16,0.508
2016-03-28 02:47:00,1746E-3,5C000400,-0724,0834,12085,023.5,045.3,0.263,758.4,01.16,0.508
2016-03-28 02:48:00,1870E-3,5C000400,-0724,0834,12204,023.5,045.3,0.263,758.4,01.16,0.508
2016-03-28 02:49:00,1690E-3,5C000400,-0724,0834,12120,023.5,045.3,0.263,758.4,01.16,0.508
2016-03-28 02:50:00,1764E-3,5C000400,-0724,0834,12131,023.5,045.3,0.263,758.4,01.16,0.508
2016-03-28 02:51:00,1786E-3,5C000400,-0724,0834,12186,023.5,045.3,0.263,758.4,01.16,0.508
2016-03-28 02:52:00,1734E-3,5C000400,-0724,0834,12190,023.5,045.3,0.263,758.4,01.16,0.508
2016-03-28 02:53:00,1771E-3,5C000400,-0724,0834,12186,023.5,045.3,0.263,758.4,01.16,0.508
2016-03-28 02:54:00,1817E-3,5C000400,-0724,0834,12028,023.5,045.3,0.263,758.5,01.16,0.508
2016-03-28 02:55:00,1740E-3,5C000400,-0724,0835,12192,023.5,045.3,0.263,758.5,01.16,0.508
2016-03-28 02:56:00,1761E-3,5C000400,-0724,0835,12233,023.5,045.3,0.263,758.5,01.16,0.508
2016-03-28 02:57:00,1790E-3,5C000400,-0724,0834,12235,023.5,045.3,0.263,758.5,01.16,0.508
2016-03-28 02:58:00,1601E-3,5C000400,-0724,0834,12263,023.5,045.3,0.263,758.5,01.16,0.508
2016-03-28 02:59:00,1782E-3,5C000400,-0724,0834,12143,023.6,045.3,0.263,758.5,01.16,0.508
2016-03-28 03:00:00,1806E-3,5C000400,-0724,0835,12171,023.5,045.3,0.263,758.5,01.16,0.508
2016-03-28 03:01:00,1832E-3,5C000400,-0724,0835,12078,023.5,045.3,0.263,758.5,01.16,0.508
2016-03-28 03:02:00,1724E-3,5C000400,-0724,0834,12226,023.5,045.3,0.263,758.6,01.16,0.508
2016-03-28 03:03:00,1860E-3,5C000400,-0724,0834,12253,023.6,045.3,0.263,758.6,01.16,0.508
2016-03-28 03:04:00,1731E-3,5C000400,-0724,0834,12139,023.6,045.3,0.263,758.6,01.16,0.508
2016-03-28 03:05:00,1834E-3,5C000400,-0724,0835,12197,023.6,045.3,0.263,758.6,01.16,0.508
2016-03-28 03:06:00,1703E-3,5C000400,-0724,0834,12107,023.6,045.3,0.263,758.6,01.16,0.508
2016-03-28 03:07:00,1737E-3,5C000400,-0724,0834,12083,023.6,045.3,0.263,758.6,01.16,0.508
2016-03-28 03:08:00,1705E-3,5C000400,-0724,0835,12042,023.6,045.3,0.263,758.6,01.16,0.508
2016-03-28 03:09:00,1815E-3,5C000400,-0724,0835,12095,023.6,045.3,0.263,758.6,01.16,0.508
2016-03-28 03:10:00,1756E-3,5C000400,-0724,0834,12264,023.6,045.3,0.263,758.6,01.16,0.508
2016-03-28 03:11:00,1669E-3,5C000400,-0724,0834,12010,023.6,045.3,0.263,758.6,01.16,0.508
2016-03-28 03:12:00,1698E-3,5C000400,-0724,0835,12245,023.6,045.3,0.263,758.6,01.16,0.508
2016-03-28 03:13:00,1877E-3,5C000400,-0724,0834,12048,023.6,045.3,0.263,758.6,01.16,0.508
2016-03-28 03:14:00,1848E-3,5C000400,-0724,0833,12165,023.6,045.3,0.263,758.6,01.16,0.508
2016-03-28 03:15:00,1693E-3,5C000400,-0724,0834,11886,023.6,045.3,0.263,758.6,01.16,0.508
2016-03-28 03:16:00,1817E-3,5C000400,-0724,0834,12262,023.6,045.3,0.263,758.6,01.16,0.508
2016-03-28 03:17:00,1633E-3,5C000400,-0724,0834,12213,023.6,045.3,0.263,758.6,01.16,0.508
2016-03-28 03:18:00,1834E-3,5C000400,-0724,0834,12316,023.6,045.3,0.263,758.6,01.16,0.508
2016-03-28 03:19:00,1821E-3,5C000400,-0724,0834,12223,023.7,045.3,0.263,758.7,01.16,0.508
2016-03-28 03:20:00,1770E-3,5C000400,-0724,0834,12217,023.7,045.3,0.263,758.7,01.16,0.508
2016-03-28 03:21:00,1822E-3,5C000400,-0724,0835,12228,023.7,045.3,0.263,758.7,01.16,0.508
2016-03-28 03:22:00,1853E-3,5C000400,-0724,0835,12272,023.7,045.3,0.263,758.7,01.16,0.508
2016-03-28 03:23:00,1728E-3,5C000400,-0724,0834,12197,023.7,045.3,0.263,758.7,01.16,0.508
2016-03-28 03:24:00,1735E-3,5C000400,-0724,0835,12171,023.7,045.3,0.263,758.7,01.16,0.508
2016-03-28 03:25:00,1791E-3,5C000400,-0724,0834,12125,023.7,045.3,0.263,758.7,01.16,0.508
2016-03-28 03:26:00,1744E-3,5C000400,-0724,0834,12128,023.7,045.3,0.263,758.7,01.16,0.508
2016-03-28 03:27:00,1692E-3,5C000400,-0724,0834,12220,023.7,045.3,0.263,758.7,01.16,0.508
2016-03-28 03:28:00,1723E-3,5C000400,-0724,0834,12022,023.7,045.3,0.262,758.7,01.16,0.508
2016-03-28 03:29:00,1794E-3,5C000400,-0724,0834,12177,023.7,045.3,0.262,758.7,01.16,0.508
2016-03-28 03:30:00,1947E-3,5C000400,-0724,0834,12228,023.7,045.3,0.262,758.7,01.16,0.508
2016-03-28 03:31:00,1735E-3,5C000400,-0724,0835,12290,023.7,045.3,0.262,758.7,01.16,0.508
2016-03-28 03:32:00,1723E-3,5C000400,-0724,0834,12275,023.7,045.3,0.263,758.7,01.16,0.508
2016-03-28 03:33:00,1749E-3,5C000400,-0724,0834,12171,023.7,045.3,0.263,758.7,01.16,0.508
2016-03-28 03:34:00,1791E-3,5C000400,-0724,0834,12117,023.7,045.3,0.263,758.7,01.16,0.508
2016-03-28 03:35:00,1718E-3,5C000400,-0724,0835,11933,023.8,045.3,0.263,758.7,01.16,0.508
2016-03-28 03:36:00,1825E-3,5C000400,-0724,0834,12050,023.8,045.3,0.262,758.7,01.16,0.508
2016-03-28 03:37:00,1702E-3,5C000400,-0724,0835,12356,023.8,045.3,0.263,758.7,01.16,0.508
2016-03-28 03:38:00,1675E-3,5C000400,-0724,0835,12136,023.8,045.3,0.263,758.7,01.16,0.508
2016-03-28 03:39:00,1851E-3,5C000400,-0724,0834,12173,023.8,045.3,0.262,758.7,01.16,0.508
2016-03-28 03:40:00,1758E-3,5C000400,-0724,0835,12009,023.8,045.3,0.263,758.7,01.16,0.508
2016-03-28 03:41:00,1728E-3,5C000400,-0724,0835,12293,023.8,045.3,0.263,758.7,01.16,0.508
2016-03-28 03:42:00,1713E-3,5C000400,-0724,0835,12123,023.8,045.3,0.263,758.7,01.16,0.508
2016-03-28 03:43:00,1652E-3,5C000400,-0724,0835,12193,023.8,045.3,0.263,758.7,01.16,0.508
2016-03-28 03:44:00,1844E-3,5C000400,-0724,0835,12282,023.8,045.3,0.262,758.8,01.16,0.508
2016-03-28 03:45:00,1743E-3,5C000400,-0724,0834,12254,023.8,045.3,0.263,758.8,01.16,0.508
2016-03-28 03:46:00,1756E-3,5C000400,-0724,0834,12202,023.8,045.3,0.263,758.8,01.16,0.508
2016-03-28 03:47:00,1713E-3,5C000400,-0724,0835,12050,023.8,045.3,0.262,758.8,01.16,0.508
2016-03-28 03:48:00,1742E-3,5C000400,-0724,0834,12130,023.8,045.3,0.263,758.8,01.16,0.508
2016-03-28 03:49:00,1899E-3,5C000400,-0724,0835,12015,023.9,045.3,0.263,758.8,01.16,0.508
2016-03-28 03:50:00,1794E-3,5C000400,-0724,0835,12123,023.9,045.3,0.262,758.8,01.16,0.508
2016-03-28 03:51:00,1735E-3,5C000400,-0724,0835,12196,023.9,045.3,0.262,758.8,01.16,0.508
2016-03-28 03:52:00,1796E-3,5C000400,-0724,0834,12152,023.9,045.3,0.263,758.8,01.16,0.508
2016-03-28 03:53:00,1803E-3,5C000400,-0724,0834,12221,023.9,045.3,0.263,758.8,01.16,0.508
2016-03-28 03:54:00,1780E-3,5C000400,-0724,0834,12264,023.9,045.3,0.263,758.9,01.16,0.508
2016-03-28 03:55:00,1766E-3,5C000400,-0724,0835,12241,023.9,045.3,0.262,758.8,01.16,0.508
2016-03-28 03:56:00,1775E-3,5C000400,-0724,0834,12010,023.9,045.3,0.262,758.9,01.16,0.508
2016-03-28 03:57:00,1781E-3,5C000400,-0724,0834,12136,023.9,045.3,0.262,758.9,01.16,0.508
2016-03-28 03:58:00,1872E-3,5C000400,-0724,0834,12223,023.9,045.3,0.263,758.9,01.16,0.508
2016-03-28 03:59:00,1720E-3,5C000400,-0724,0834,12175,023.9,045.3,0.263,758.9,01.16,0.508
2016-03-28 04:00:00,1784E-3,5C000400,-0724,0835,12067,024.0,045.3,0.262,758.9,01.16,0.508
2016-03-28 04:01:00,1846E-3,5C000400,-0724,0834,12192,023.9,045.3,0.262,758.9,01.16,0.508
2016-03-28 04:02:00,1778E-3,5C000400,-0724,0834,12077,023.9,045.3,0.262,758.9,01.16,0.508
2016-03-28 04:03:00,1890E-3,5C000400,-0724,0834,12208,023.9,045.3,0.263,758.9,01.16,0.508
2016-03-28 04:04:00,1707E-3,5C000400,-0724,0835,12100,024.0,045.3,0.263,758.9,01.16,0.508
2016-03-28 04:05:00,1738E-3,5C000400,-0724,0834,12118,024.0,045.3,0.262,759.0,01.16,0.508
2016-03-28 04:06:00,1738E-3,5C000400,-0724,0835,12343,023.9,045.3,0.262,759.0,01.16,0.508
2016-03-28 04:07:00,1807E-3,5C000400,-0724,0834,12131,024.0,045.3,0.262,759.0,01.16,0.508
2016-03-28 04:08:00,1862E-3,5C000400,-0724,0834,12118,024.0,045.3,0.263,759.0,01.16,0.508
2016-03-28 04:09:00,1763E-3,5C000400,-0724,0834,12054,024.0,045.3,0.262,759.0,01.16,0.508
2016-03-28 04:10:00,1780E-3,5C000400,-0724,0835,12213,024.0,045.3,0.262,759.0,01.16,0.508
2016-03-28 04:11:00,1868E-3,5C000400,-0724,0834,12173,024.0,045.3,0.262,759.0,01.16,0.508
2016-03-28 04:12:00,1744E-3,5C000400,-0724,0834,12198,024.0,045.3,0.263,759.0,01.16,0.508
2016-03-28 04:13:00,1849E-3,5C000400,-0724,0834,12147,024.0,045.3,0.262,759.0,01.16,0.508
2016-03-28 04:14:00,1756E-3,5C000400,-0724,0834,12194,024.0,045.3,0.262,759.0,01.16,0.508
2016-03-28 04:15:00,1754E-3,5C000400,-0724,0835,12208,024.0,045.3,0.262,759.0,01.16,0.508
2016-03-28 04:16:00,1801E-3,5C000400,-0724,0834,12238,024.0,045.3,0.263,758.9,01.16,0.508
2016-03-28 04:17:00,1718E-3,5C000400,-0724,0834,11998,024.0,045.3,0.263,758.9,01.16,0.508
2016-03-28 04:18:00,1892E-3,5C000400,-0724,0834,12158,024.0,045.3,0.262,758.9,01.16,0.508
2016-03-28 04:19:00,1868E-3,5C000400,-0724,0834,12102,024.0,045.3,0.262,759.0,01.16,0.508
2016-03-28 04:20:00,1731E-3,5C000400,-0724,0834,12065,024.0,045.3,0.263,759.0,01.16,0.508